Location: *
(44.1392°N, 4.8079°E)
Time: 08:00:25
(UTC+00:00)

Meteor 2-2 Rocket - Pass Details

Date: 21 June 2021
Orbit: 852 x 928 km, 81.3° (Epoch: 02 August)

Event Time Altitude Azimuth Distance (km) Brightness Sun altitude
Rises 00:48:39 0° 347° (NNW) 3,586 8.5 -20.7°
Reaches altitude 10° 00:51:08 10° 346° (NNW) 2,641 7.6 -20.6°
Maximum altitude 00:57:10 74° 263° (W) 967 4.3 -20.3°
Enters shadow 00:59:43 36° 187° (S) 1,422 4.8 -20.1°
